Search for airport 
image banner adimage banner ad
image banner ad

SJDU - Nossa Senhora do Loreto Airport

Located in Uruguaiana, Brazil

ICAO - SJDU, IATA -

Data provided by Airmate  

General information

Coordinates: S29°43'41" W56°57'37"
Elevation is 318 feet MSL.
Magnetic variation is -13° East
View others Airports in Rio Grande do Sul

Operational data

Open for public use
Current time UTC:
Current local time:
Weather at : SBUG - Rubem Berta ( 10 km )
TAF: TAF SBUG 010300Z 0106/0118 09010KT CAVOK TN20/0108Z TX30/0117Z BECMG 0113/0115 07010KT 9999 SCT035 RMK PEO
View NOTAMs / SUP AIP / TFR affecting this airport [VIEW]
Communications frequencies: [VIEW]

Runways:

RWY identifierQFULength (ft)Width (ft)SurfaceLDA (ft)
10114859GRASS
28114859GRASS

Airport contact information

Address: Uruguaiana Brazil

Satellite view of SJDU